Content
SEND FEEDBACK

Daily
Averages
Monthly
Summary
United States of America

BURLINGTON, NORTH DAKOTA


Home > North America > United States > North Dakota
Elevation: 1679 feet     Latitude: 48 16N     Longitude: 101 17W

WEATHER
 
SELECT A DAY
Number of Records: 200,190;   Date Range: 1/1/95 - 9/3/14
 
SHARE

PRINT THIS DATA

[ ← Previous Day ]
WEATHER ALMANAC - DECEMBER 24, 2013
[ Next Day → ]
[ °C ]   °F
Weather ElementAverageHighLow
Temperature21.6 °F32 °F (4:54 pm)6.1 °F (1:23 am)
Dewpoint15.6 °F26.1 °F (7:54 pm)1 °F (1:23 am)
Humidity77.8 %84 % (8:44 am)72 % (2:54 pm)
Barometer29.95 in30.04 in (11:54 pm)29.78 in (3:41 am)
Wind Speed16 mph23 mph (7:54 pm)
Wind Gust31.1 mph (7:54 pm)
Weather ElementAverage
Visibility9.2 mi
Wind DirectionWSW (240.8 °)

Weather ElementTotal
Precipitation0.03 in
Heating Degree Days46 (Base 65)
Averaged from 40 records on December 24, 2013
WEATHER CONDITIONS BREAKOUT
WIND DIRECTION BREAKOUT
WEATHER BY HOUR - DECEMBER 24, 2013
[ °C ]   °F
Local TimeTemperatureDewpointHumidityBarometerVisibilityWind DirectionWind SpeedGust SpeedPrecipitationEventsConditions
1:23 AM6.1 °F1.0 °F80 %29.84 in7.0 miSouth (170°)16.1 mph27.6 mph0.00 inOvercast
1:54 AM7.0 °F1.0 °F77 %30.00 in10.0 miSSE (160°)16.1 mph26.5 mph0.00 inOvercast
2:54 AM8.1 °F1.9 °F76 %29.97 in9.0 miSouth (170°)20.7 mph29.9 mph0.00 inOvercast
3:15 AM9.0 °F3.0 °F77 %29.82 in3.0 miSouth (180°)17.3 mph28.8 mph0.00 inSnowLight Snow
3:33 AM9.0 °F3.9 °F80 %29.79 in3.0 miSouth (180°)17.3 mph0.01 inSnowLight Snow
3:41 AM10.0 °F3.9 °F76 %29.78 in5.0 miSouth (170°)17.3 mph0.01 inSnowLight Snow
3:54 AM10.0 °F5.0 °F80 %29.96 in9.0 miSouth (190°)20.7 mph25.3 mph0.01 inOvercast
4:10 AM10.9 °F5.0 °F77 %29.82 in5.0 miSouth (190°)15.0 mph0.00 inSnowLight Snow
4:40 AM10.9 °F5.0 °F77 %29.82 in9.0 miSouth (180°)15.0 mph0.00 inSnowLight Snow
4:54 AM12.0 °F5.0 °F73 %29.96 in10.0 miSSW (200°)20.7 mph0.00 inOvercast
5:54 AM12.9 °F7.0 °F77 %29.96 in10.0 miSSW (210°)13.8 mphOvercast
6:25 AM14.0 °F8.1 °F77 %29.83 in10.0 miSSW (210°)15.0 mphOvercast
6:54 AM14.0 °F8.1 °F77 %29.98 in10.0 miSSW (210°)11.5 mphOvercast
7:12 AM16.0 °F9.0 °F74 %29.85 in10.0 miSSW (210°)10.4 mphOvercast
7:54 AM17.1 °F10.9 °F77 %29.98 in10.0 miSW (230°)11.5 mphOvercast
8:06 AM17.1 °F12.0 °F81 %29.85 in10.0 miSW (220°)9.2 mphOvercast
8:44 AM18.0 °F14.0 °F84 %29.87 in10.0 miWSW (240°)8.1 mphMostly Cloudy
8:54 AM19.0 °F14.0 °F81 %30.00 in10.0 miWSW (250°)11.5 mphMostly Cloudy
9:04 AM19.9 °F15.1 °F81 %29.88 in10.0 miWest (280°)15.0 mphOvercast
9:54 AM23.0 °F18.0 °F81 %30.01 in10.0 miWest (270°)12.7 mphOvercast
10:11 AM24.1 °F19.0 °F81 %29.90 in10.0 miWest (270°)12.7 mphOvercast
10:54 AM26.1 °F19.9 °F78 %30.02 in10.0 miWNW (290°)21.9 mphOvercast
11:54 AM27.0 °F19.9 °F75 %30.02 in10.0 miWNW (290°)19.6 mph0.00 inMostly Cloudy
12:54 PM27.0 °F19.9 °F75 %30.03 in10.0 miWNW (300°)16.1 mph0.00 inOvercast
1:52 PM28.4 °F21.2 °F74 %29.93 in10.0 miWNW (300°)13.8 mphScattered Clouds
1:54 PM28.0 °F21.0 °F75 %30.02 in10.0 miWNW (300°)12.7 mphPartly Cloudy
2:54 PM30.9 °F23.0 °F72 %30.02 in10.0 miWest (270°)12.7 mphMostly Cloudy
3:54 PM30.9 °F23.0 °F72 %30.02 in10.0 miWSW (250°)12.7 mphOvercast
4:54 PM32.0 °F24.1 °F73 %30.03 in10.0 miWSW (250°)13.8 mphOvercast
5:54 PM30.9 °F25.0 °F79 %30.03 in10.0 miWSW (250°)19.6 mph25.3 mphOvercast
6:54 PM32.0 °F25.0 °F75 %30.02 in10.0 miWest (260°)19.6 mph28.8 mphMostly Cloudy
7:54 PM32.0 °F26.1 °F79 %30.02 in10.0 miWest (260°)23.0 mph31.1 mphOvercast
8:54 PM32.0 °F26.1 °F79 %30.02 in10.0 miWest (270°)17.3 mphOvercast
9:03 PM32.0 °F26.1 °F79 %29.94 in10.0 miWest (260°)18.4 mphOvercast
9:13 PM32.0 °F26.1 °F79 %29.94 in10.0 miWest (260°)19.6 mphOvercast
9:54 PM30.9 °F26.1 °F82 %30.02 in10.0 miWest (260°)15.0 mphMostly Cloudy
10:54 PM30.9 °F26.1 °F82 %30.02 in10.0 miWest (280°)17.3 mphOvercast
11:21 PM30.9 °F26.1 °F82 %29.95 in10.0 miWNW (290°)17.3 mphOvercast
11:45 PM30.9 °F25.0 °F79 %29.96 in10.0 miWNW (300°)20.7 mph31.1 mph0.00 inSnowLight Snow
11:54 PM30.9 °F25.0 °F79 %30.04 in9.0 miWNW (300°)21.9 mph0.00 inOvercast
Hourly data recorded from KMOT, located miles away from Burlington, North Dakota







STORIES FROM OUR PARTNERS